Hourly Data Report for July 26, 2017

TORONTO CITY
ONTARIO

43°40'00.000" N
79°24'00.000" W
112.50 m
6158355
71508
XTO

Download Data

Hourly Data (July 2017)
Hourly Data Report for July 26, 2017
TIME
LST
Temp Definition
°C
Dew Point Definition
°C
Rel Hum Definition
%
Precip. Amount Definition
mm

Wind Dir Definition
10's deg

Wind Spd Definition
km/h
Visibility Definition
km
Stn Press Definition
kPa
Hmdx Definition


Wind Chill Definition


Weather Definition


00:00 17.9 13.0 73 0.0 LegendMM LegendMM   100.91     LegendNANA
01:00 18.5 13.9 75 0.0 LegendMM LegendMM   100.93     LegendNANA
02:00 17.8 13.8 78 0.0 LegendMM LegendMM   100.95     LegendNANA
03:00 16.5 13.2 81 0.0 LegendMM LegendMM   100.92     LegendNANA
04:00 15.8 12.4 80 0.0 LegendMM LegendMM   100.91     LegendNANA
05:00 15.4 12.4 82 0.0 LegendMM LegendMM   100.91     LegendNANA
06:00 16.4 13.0 80 0.0 LegendMM LegendMM   100.90     LegendNANA
07:00 18.5 14.3 77 0.0 LegendMM LegendMM   100.88     LegendNANA
08:00 20.4 13.0 63 0.0 LegendMM LegendMM   100.85     LegendNANA
09:00 20.9 12.5 59 0.0 LegendMM LegendMM   100.83     LegendNANA
10:00 20.4 13.4 64 0.0 LegendMM LegendMM   100.85     LegendNANA
11:00 20.4 12.7 61 0.0 LegendMM LegendMM   100.83     LegendNANA
12:00 20.6 13.2 62 0.0 LegendMM LegendMM   100.70     LegendNANA
13:00 20.3 12.4 61 0.0 LegendMM LegendMM   100.56     LegendNANA
14:00 21.4 13.4 60 0.0 LegendMM LegendMM   100.57     LegendNANA
15:00 21.2 14.1 64 0.0 LegendMM LegendMM   100.51 25   LegendNANA
16:00 21.5 14.1 62 0.0 LegendMM LegendMM   100.45 25   LegendNANA
17:00 21.3 14.8 66 0.0 LegendMM LegendMM   100.48 25   LegendNANA
18:00 21.2 14.6 66 0.0 LegendMM LegendMM   100.49 25   LegendNANA
19:00 19.8 15.3 76 0.0 LegendMM LegendMM   100.37     LegendNANA
20:00 18.4 15.8 85 1.1 LegendMM LegendMM   100.31     LegendNANA
21:00 19.1 16.0 82 0.0 LegendMM LegendMM   100.30     LegendNANA
22:00 19.2 17.0 87 0.0 LegendMM LegendMM   100.25     LegendNANA
23:00 19.5 16.7 84 0.0 LegendMM LegendMM   100.18     LegendNANA

Notes on Data Quality.

Legend

  • E = Estimated
  • M = Missing
  • NA = Not Available*
  • [empty] = Indicates an unobserved value
Date modified: